[[{"header":{"parameterUnit":"m.s-1","parameterCategory":1,"la1":30.2991,"la2":30.254,"lo1":-89.0895,"lo2":-89.0444,"dy":0.0017,"dx":0.0017,"nx":28,"ny":28,"refTime":"2025-08-25T09:00:00:Z","depth":0,"parameterNumber":2,"parameterNumberName":"U-component_of_WINDS"},"data":[0,0,0,0,0,0,0,0,0,0,0,0,0,0,0,0,0,0,0,0,0,0,0,0,0,0,0,0,0,0,0,0,0,0,0,0,0,0,0,0,0,0,0,0,0,0,0,0,0,0,0,0,0,0,0,0,0,0,-2.7931,-2.7931,0,-2.7996,-2.7997,-2.7997,-2.7902,-2.7898,-2.7895,-2.7892,-2.7958,-2.7963,-2.7968,0,0,0,0,0,0,0,0,0,0,0,0,0,-2.7722,-2.7727,-2.793,-2.7931,-2.7932,-2.7996,-2.7997,-2.7998,-2.7902,-2.7898,-2.7894,-2.789,-2.7957,-2.7963,-2.7969,0,0,0,0,0,0,0,0,0,0,0,0,0,-2.7803,-2.7728,-2.793,-2.7892,-2.7889,-2.7996,-2.7997,-2.7998,-2.7903,-2.7898,-2.7893,-2.7888,-2.7955,-2.7962,-2.7969,-2.8116,0,0,-2.7992,-2.7995,0,0,0,0,0,0,0,0,-2.7798,-2.7811,-2.7897,-2.7895,-2.7892,-2.7935,-2.7948,-2.8038,-2.7904,-2.7898,-2.7892,-2.7886,-2.7955,-2.7962,-2.7985,-2.8119,-2.8122,-2.7993,-2.7997,-2.8,-2.8002,0,0,0,0,0,0,0,-2.7793,-2.7807,-2.7956,-2.7898,-2.7895,-2.7872,-2.7877,-2.7964,-2.7954,-2.7898,-2.7891,-2.79,-2.7953,-2.7978,-2.7986,-2.8123,-2.7992,-2.7999,-2.8003,-2.8006,-2.8381,-2.8386,0,0,0,0,0,0,-2.7792,-2.7803,-2.7954,-2.7958,-2.7832,-2.7879,-2.7886,-2.7927,-2.7953,-2.7952,-2.7905,-2.7896,-2.7968,-2.7978,-2.7988,-2.8162,-2.8,-2.8007,-2.8011,-2.8375,-2.8382,-2.8388,0,0,0,0,0,0,-2.7788,-2.7806,-2.7952,-2.7879,-2.7896,-2.7888,-2.7935,-2.7931,-2.7956,-2.7958,-2.7955,-2.7933,-2.7965,-2.7978,-2.8085,-2.8163,-2.801,-2.8017,-2.8369,-2.8377,-2.8385,-2.8511,0,0,0,0,0,0,-2.7782,-2.7805,-2.7861,-2.7881,-2.79,-2.8048,-2.794,-2.7936,-2.7969,-2.7958,-2.7984,-2.7983,-2.7962,-2.8075,-2.8092,-2.817,-2.8023,-2.8362,-2.8373,-2.8382,-2.85,-2.8522,-2.8542,0,0,0,0,0,-2.7775,-2.7894,-2.7864,-2.7883,-2.7969,-2.8053,-2.8063,-2.8037,-2.7976,-2.8032,-2.8033,-2.7982,-2.8151,-2.8086,-2.8106,-2.8187,-2.8357,-2.837,-2.8382,-2.849,-2.8518,-2.8541,0,0,0,0,0,0,-2.7883,-2.7896,-2.7863,-2.7992,-2.8022,-2.8036,-2.8106,-2.8067,-2.8114,-2.8102,-2.8067,-2.8073,-2.8188,-2.8198,-2.8125,-2.833,-2.8244,-2.8261,-2.832,-2.8346,-2.8367,-2.8362,-2.8029,0,0,0,0,0,-2.7922,-2.7988,-2.7996,-2.8108,-2.8125,-2.8113,-2.8148,-2.8125,-2.8155,-2.8167,-2.8176,-2.8206,-2.8266,-2.8307,-2.8362,-2.85,-2.8505,-2.8566,-2.8587,-2.8604,-2.8619,-2.8693,-2.8721,-2.8429,-2.8429,-2.8428,0,0,-2.8002,-2.8017,-2.8062,-2.813,-2.8151,-2.8221,-2.8125,-2.8202,-2.8254,-2.8179,-2.8281,-2.8289,-2.832,-2.8444,-2.8499,-2.8456,-2.8701,-2.862,-2.8634,-2.8639,-2.8709,-2.8737,-2.8761,-2.8437,-2.8436,-2.8434,0,0,-2.8185,-2.8203,-2.8299,-2.8322,-2.8355,-2.8346,-2.8369,-2.839,-2.8392,-2.8494,-2.8439,-2.85,-2.8604,-2.8629,-2.8656,-2.8849,-2.8804,-2.8868,-2.8978,-2.9051,-2.9074,-2.9094,-2.9163,-2.9188,-2.8883,-2.8883,-2.8883,0,-2.8281,-2.8384,-2.8353,-2.8436,-2.8468,-2.8403,-2.85,-2.8524,-2.8573,-2.8596,-2.8547,-2.8677,-2.8694,-2.8823,-2.887,-2.8893,-2.8919,-2.8865,-2.9073,-2.9093,-2.9111,-2.9177,-2.9203,-2.8891,-2.889,-2.8889,-2.8888,0,-2.8501,-2.8574,-2.8647,-2.8697,-2.8737,-2.8826,-2.8809,-2.8853,-2.8827,-2.8824,-2.8928,-2.8946,-2.9004,-2.9033,-2.9008,-2.9159,-2.9131,-2.9078,-2.8991,-2.9147,-2.9208,-2.9233,-2.8901,-2.8899,-2.8896,-2.8895,0,0,-2.8753,-2.8785,-2.8813,-2.8834,-2.8866,-2.8921,-2.9008,-2.9065,-2.9104,-2.914,-2.9212,-2.9301,-2.9253,-2.9283,-2.926,-2.9324,-2.9476,-2.9263,-2.9263,-2.9302,-2.9644,-2.9684,-2.9714,-2.9447,-2.9452,-2.9455,-2.9642,0,-2.8935,-2.9085,-2.906,-2.9205,-2.9272,-2.9212,-2.9287,-2.9315,-2.9315,-2.9371,-2.937,-2.9434,-2.9365,-2.9383,-2.9444,-2.9445,-2.9545,-2.9431,-2.9513,-2.9517,-2.9508,-2.9746,-2.9788,-2.9963,-2.9666,-2.967,-2.9672,0,-2.9168,-2.9214,-2.9366,-2.9387,-2.9414,-2.9482,-2.9533,-2.9588,-2.9618,-2.9613,-2.9647,-2.9613,-2.9699,-2.961,-2.9729,-2.9652,-2.9684,-2.969,-2.9696,-2.9703,-2.9604,-2.9759,-3.0018,-3.0045,-2.971,-2.9707,-2.9704,0,-2.9337,-2.9436,-2.954,-2.9561,-2.9588,-2.9638,-2.9652,-2.9677,-2.9713,-2.9757,-2.978,-2.9834,-2.9864,-2.9906,-2.9887,-2.9824,-3.0009,-2.9919,-3.0008,-3.0009,-3.0049,-3.0047,-3.0318,-3.007,-3.007,-3.0069,-3.0069,0,-2.9544,-2.9639,-2.9616,-2.968,-2.9785,-2.9756,-2.9861,-2.9867,-2.9891,-2.9955,-2.9906,-2.9967,-2.9938,-2.9998,-2.9983,-3.0084,-3.0097,-3.0096,-3.0091,-3.01,-3.0101,-3.0121,-3.0108,-3.0076,-3.0075,-3.0073,-3.0072,0,-2.975,-2.9739,-2.9848,-2.9866,-2.9872,-2.9949,-2.9964,-3.0024,-3.002,-3.0102,-3.0119,-3.0113,-3.018,-3.0165,-3.0239,-3.0229,-3.0356,-3.0336,-3.0346,-3.0341,-3.0431,-3.0423,-3.0724,-3.0762,-3.049,-3.0493,-3.0495,0,-2.9882,-2.9954,-2.998,-3.002,-3.0038,-3.0102,-3.0139,-3.0113,-3.0153,-3.0194,-3.0249,-3.0312,-3.0361,-3.0471,-3.0473,-3.053,-3.051,-3.0612,-3.0518,-3.0526,-3.0512,-3.0508,-3.0515,-3.0631,-3.0634,-3.0636,-3.0638,0,-3.0119,-3.011,-3.0165,-3.0219,-3.0264,-3.0305,-3.0342,-3.0377,-3.0354,-3.0402,-3.047,-3.0508,-3.0584,-3.0647,-3.07,-3.0713,-3.0673,-3.0668,-3.0691,-3.0702,-3.0705,-3.0705,-3.0397,-3.0661,-3.0659,-3.0657,-3.0656,-3.0655,-3.0292,-3.0353,-3.0382,-3.0445,-3.047,-3.0505,-3.0562,-3.0566,-3.0623,-3.0682,-3.0664,-3.0742,-3.077,-3.0836,-3.0857,-3.0917,-3.0879,-3.0913,-3.0922,-3.0931,-3.0942,-3.0696,-3.0927,-3.0926,-3.0926,-3.0925,-3.0925,0,-3.0526,-3.0541,-3.06,-3.0653,-3.0703,-3.066,-3.0699,-3.0743,-3.0813,-3.0843,-3.0893,-3.0972,-3.1033,-3.104,-3.1098,-3.1146,-3.1129,-3.1162,-3.1158,-3.1162,-3.0973,-3.0947,-3.1175,-3.1175,-3.1175,-3.1175,-3.1175,-3.1175,-3.0653,-3.0755,-3.075,-3.0864,-3.0878,-3.0955,-3.0981,-3.1013,-3.1037,-3.1128,-3.1179,-3.1183,-3.1205,-3.1264,-3.1319,-3.1319,-3.1343,-3.1383,-3.1377,-3.12,-3.1175,-3.1151,-3.1127,-3.1389,-3.1389,-3.1561,-3.1562,-3.1564]},{"header":{"parameterUnit":"m.s-1","parameterCategory":1,"la1":30.2991,"la2":30.254,"lo1":-89.0895,"lo2":-89.0444,"dy":0.0017,"dx":0.0017,"nx":28,"ny":28,"refTime":"2025-08-25T09:00:00:Z","depth":0,"parameterNumber":3,"parameterNumberName":"V-component_of_WINDS"},"data":[0,0,0,0,0,0,0,0,0,0,0,0,0,0,0,0,0,0,0,0,0,0,0,0,0,0,0,0,0,0,0,0,0,0,0,0,0,0,0,0,0,0,0,0,0,0,0,0,0,0,0,0,0,0,0,0,0,0,-2.883,-2.883,0,-2.8827,-2.8827,-2.8827,-2.8783,-2.8782,-2.8781,-2.878,-2.8776,-2.8777,-2.8778,0,0,0,0,0,0,0,0,0,0,0,0,0,-2.8796,-2.8797,-2.883,-2.883,-2.883,-2.8827,-2.8827,-2.8827,-2.8783,-2.8782,-2.8781,-2.8779,-2.8776,-2.8777,-2.8778,0,0,0,0,0,0,0,0,0,0,0,0,0,-2.8804,-2.8797,-2.883,-2.8808,-2.8806,-2.8827,-2.8827,-2.8827,-2.8784,-2.8782,-2.878,-2.8779,-2.8776,-2.8777,-2.8778,-2.8821,0,0,-2.8783,-2.8783,0,0,0,0,0,0,0,0,-2.8803,-2.8805,-2.8811,-2.8809,-2.8807,-2.8804,-2.8814,-2.8825,-2.8784,-2.8792,-2.878,-2.8778,-2.8787,-2.8787,-2.879,-2.8821,-2.882,-2.8783,-2.8784,-2.8784,-2.8785,0,0,0,0,0,0,0,-2.8803,-2.8805,-2.8829,-2.8811,-2.8809,-2.8797,-2.8797,-2.8816,-2.8799,-2.8791,-2.8788,-2.8788,-2.8785,-2.8789,-2.879,-2.882,-2.8783,-2.8784,-2.8785,-2.8786,-2.8883,-2.8885,0,0,0,0,0,0,-2.8805,-2.8805,-2.8829,-2.8829,-2.8801,-2.8799,-2.8798,-2.8807,-2.8798,-2.8796,-2.879,-2.8786,-2.8787,-2.8788,-2.879,-2.8837,-2.8784,-2.8786,-2.8787,-2.8881,-2.8883,-2.8885,0,0,0,0,0,0,-2.8805,-2.8808,-2.8829,-2.8816,-2.8818,-2.8802,-2.8811,-2.8807,-2.8811,-2.8797,-2.8794,-2.8797,-2.8786,-2.8788,-2.8813,-2.8837,-2.8786,-2.8788,-2.8879,-2.8882,-2.8884,-2.8934,0,0,0,0,0,0,-2.8804,-2.8808,-2.8825,-2.8817,-2.8819,-2.8853,-2.8813,-2.8809,-2.8814,-2.8809,-2.8803,-2.88,-2.8785,-2.8811,-2.8814,-2.8838,-2.8789,-2.8877,-2.888,-2.8883,-2.893,-2.8938,-2.8944,0,0,0,0,0,-2.8803,-2.8839,-2.8826,-2.8829,-2.8839,-2.8855,-2.8856,-2.8837,-2.8816,-2.8832,-2.8823,-2.8801,-2.8833,-2.8814,-2.8817,-2.8841,-2.8875,-2.8879,-2.8883,-2.8927,-2.8936,-2.8944,0,0,0,0,0,0,-2.8851,-2.8838,-2.8823,-2.8857,-2.8857,-2.8847,-2.8867,-2.8848,-2.8854,-2.885,-2.8827,-2.8826,-2.8854,-2.885,-2.8829,-2.8881,-2.885,-2.8855,-2.8882,-2.8891,-2.8898,-2.8899,-2.879,0,0,0,0,0,-2.8865,-2.888,-2.8867,-2.8899,-2.89,-2.8883,-2.889,-2.8875,-2.8874,-2.8874,-2.8867,-2.8867,-2.8876,-2.8884,-2.8892,-2.8929,-2.8926,-2.8947,-2.8954,-2.896,-2.8965,-2.8982,-2.8991,-2.8898,-2.8898,-2.8898,0,0,-2.8896,-2.889,-2.8901,-2.8908,-2.8907,-2.8921,-2.8884,-2.8901,-2.8911,-2.8877,-2.89,-2.8894,-2.8892,-2.8923,-2.8936,-2.8921,-2.899,-2.8965,-2.897,-2.8971,-2.8987,-2.8996,-2.9004,-2.8901,-2.89,-2.89,0,0,-2.8958,-2.8956,-2.8981,-2.898,-2.8977,-2.8966,-2.8972,-2.8964,-2.8959,-2.8982,-2.8956,-2.8967,-2.8986,-2.8985,-2.8987,-2.9047,-2.9026,-2.905,-2.9088,-2.9105,-2.9112,-2.9119,-2.9139,-2.9147,-2.9054,-2.9055,-2.9055,0,-2.8996,-2.9017,-2.8996,-2.9015,-2.9018,-2.8987,-2.9012,-2.9012,-2.9012,-2.9015,-2.8998,-2.9019,-2.9015,-2.9044,-2.9059,-2.9062,-2.9067,-2.9051,-2.9113,-2.9119,-2.9125,-2.9144,-2.9152,-2.9057,-2.9057,-2.9057,-2.9057,0,-2.9063,-2.9078,-2.9098,-2.9099,-2.9105,-2.9127,-2.9108,-2.9117,-2.9101,-2.9092,-2.9114,-2.9109,-2.9115,-2.9121,-2.9107,-2.9148,-2.9138,-2.9117,-2.9086,-2.9137,-2.9154,-2.9161,-2.9062,-2.906,-2.906,-2.9059,0,0,-2.9156,-2.9144,-2.9152,-2.9151,-2.9145,-2.9156,-2.9176,-2.9181,-2.9188,-2.9189,-2.9204,-2.922,-2.92,-2.9202,-2.9187,-2.9203,-2.9249,-2.918,-2.9179,-2.9192,-2.9292,-2.9307,-2.9316,-2.9235,-2.9236,-2.9237,-2.9292,0,-2.9215,-2.9248,-2.9229,-2.9265,-2.9277,-2.9247,-2.9263,-2.9261,-2.9252,-2.9261,-2.9251,-2.9262,-2.9236,-2.9236,-2.925,-2.924,-2.9268,-2.9236,-2.9248,-2.9249,-2.9249,-2.9325,-2.9342,-2.9394,-2.9299,-2.93,-2.9301,0,-2.9289,-2.9293,-2.9329,-2.9319,-2.9324,-2.9339,-2.9342,-2.9351,-2.9347,-2.934,-2.9341,-2.9322,-2.9339,-2.9309,-2.9332,-2.931,-2.9314,-2.931,-2.9311,-2.9311,-2.9278,-2.9327,-2.941,-2.9418,-2.9311,-2.9311,-2.931,0,-2.9352,-2.9366,-2.9389,-2.9389,-2.9379,-2.939,-2.9386,-2.9381,-2.9385,-2.9387,-2.9389,-2.9394,-2.9396,-2.94,-2.9382,-2.9361,-2.9407,-2.9375,-2.94,-2.94,-2.9411,-2.941,-2.9495,-2.9414,-2.9414,-2.9414,-2.9414,0,-2.942,-2.9443,-2.9417,-2.9431,-2.9456,-2.9433,-2.9458,-2.9451,-2.9446,-2.9457,-2.9431,-2.9443,-2.9419,-2.9427,-2.9413,-2.9434,-2.9435,-2.9429,-2.9425,-2.9431,-2.9432,-2.9433,-2.9428,-2.9416,-2.9416,-2.9415,-2.9415,0,-2.9495,-2.9478,-2.9501,-2.9489,-2.9486,-2.9504,-2.9493,-2.9505,-2.9494,-2.9509,-2.9511,-2.9493,-2.9502,-2.9484,-2.9491,-2.9481,-2.951,-2.95,-2.9511,-2.9508,-2.9534,-2.9531,-2.9622,-2.9632,-2.9545,-2.9546,-2.9547,0,-2.9539,-2.9556,-2.9545,-2.955,-2.9548,-2.9557,-2.9561,-2.9539,-2.9544,-2.954,-2.9552,-2.9558,-2.9562,-2.9577,-2.9565,-2.9569,-2.9559,-2.959,-2.956,-2.9565,-2.9558,-2.9557,-2.9558,-2.9597,-2.9598,-2.9599,-2.9599,0,-2.9619,-2.9609,-2.9615,-2.9618,-2.9623,-2.9625,-2.9624,-2.963,-2.9606,-2.9613,-2.9621,-2.9624,-2.963,-2.9636,-2.9637,-2.9632,-2.9612,-2.9609,-2.9615,-2.9621,-2.9626,-2.9623,-2.9528,-2.9607,-2.9606,-2.9606,-2.9605,-2.9605,-2.9679,-2.9692,-2.9685,-2.9693,-2.969,-2.9689,-2.9699,-2.9689,-2.9695,-2.9698,-2.9684,-2.9695,-2.969,-2.9689,-2.9686,-2.9694,-2.968,-2.9689,-2.9691,-2.9693,-2.9697,-2.9625,-2.9694,-2.9694,-2.9694,-2.9693,-2.9693,0,-2.9756,-2.975,-2.9757,-2.9757,-2.9762,-2.9742,-2.9739,-2.9745,-2.9755,-2.9751,-2.9755,-2.9764,-2.9769,-2.9757,-2.976,-2.9768,-2.9759,-2.977,-2.9769,-2.9768,-2.971,-2.9704,-2.9778,-2.9778,-2.9778,-2.9778,-2.9777,-2.9777,-2.9797,-2.9818,-2.9807,-2.9825,-2.9819,-2.9829,-2.9829,-2.9828,-2.9825,-2.9835,-2.984,-2.9831,-2.9823,-2.9826,-2.9829,-2.9825,-2.9828,-2.9842,-2.9835,-2.978,-2.9772,-2.9764,-2.9759,-2.9843,-2.9843,-2.9892,-2.9893,-2.9893]}]]